Location: Unspecified
(43.3830°N, 0.0000°E)
Time: 17:42:26
(UTC+00:00)

Explorer 7 - Pass Details

Date: 29 June 2019
Orbit: 485 x 680 km, 50.3° (Epoch: 17 July)

Event Time Altitude Azimuth Distance (km) Brightness Sun altitude
Rises 07:33:55 0° 263° (W) 2,690 9.8 31.9°
Reaches altitude 10° 07:36:10 10° 271° (W) 1,831 9.1 32.3°
Maximum altitude 07:40:10 43° 344° (NNW) 813 7.9 33.0°
Drops below altitude 10° 07:44:27 10° 57° (ENE) 1,956 10.6 33.8°
Sets 07:46:55 0° 63° (ENE) 2,897 11.3 34.2°
